| time (UTC) | temp F | wind direction | speed MPH | gust MPH | rain 1hr in | rain 24hr in | rain mn in | humidity % | barometer mb |
| 20260505023004 | 61 | 134 | 1.0 | 6.0 | 0.00 | 0.00 | 0.00 | 42 | 1009.2 |
| 20260505022005 | 61 | 204 | 1.0 | 5.0 | 0.00 | 0.00 | 0.00 | 39 | 1009.2 |
| 20260505021004 | 63 | 139 | 1.0 | 3.0 | 0.00 | 0.00 | 0.00 | 40 | 1009.2 |
| 20260505020004 | 63 | 152 | 1.0 | 4.0 | 0.00 | 0.00 | 0.00 | 39 | 1009.2 |
| 20260505015004 | 62 | 164 | 1.0 | 3.0 | 0.00 | 0.00 | 0.00 | 41 | 1009.4 |
| 20260505014004 | 63 | 156 | 0.0 | 3.0 | 0.00 | 0.00 | 0.00 | 38 | 1009.4 |
| 20260505013005 | 64 | 147 | 0.0 | 4.0 | 0.00 | 0.00 | 0.00 | 37 | 1009.4 |
| 20260505012004 | 64 | 108 | 1.0 | 5.0 | 0.00 | 0.00 | 0.00 | 36 | 1009.4 |
| 20260505011004 | 64 | 104 | 0.0 | 3.0 | 0.00 | 0.00 | 0.00 | 39 | 1009.4 |
| 20260505010005 | 64 | 75 | 0.0 | 2.0 | 0.00 | 0.00 | 0.00 | 35 | 1009.4 |
| 20260505005005 | 65 | 275 | 1.0 | 7.0 | 0.00 | 0.00 | 0.00 | 35 | 1010.0 |
| 20260505004005 | 65 | 222 | 1.0 | 7.0 | 0.00 | 0.00 | 0.00 | 35 | 1010.0 |
| 20260505003004 | 66 | 323 | 1.0 | 5.0 | 0.00 | 0.00 | 0.00 | 35 | 1010.0 |
| 20260505002004 | 67 | 290 | 1.0 | 4.0 | 0.00 | 0.00 | 0.00 | 33 | 1010.0 |
| 20260505001004 | 66 | 283 | 1.0 | 9.0 | 0.00 | 0.00 | 0.00 | 31 | 1010.0 |
| 20260505000004 | 65 | 30 | 1.0 | 8.0 | 0.00 | 0.00 | 0.00 | 37 | 1010.0 |
| 20260504235004 | 66 | 348 | 2.0 | 10.0 | 0.00 | 0.00 | 0.00 | 34 | 1009.3 |
| 20260504234004 | 67 | 23 | 2.0 | 11.0 | 0.00 | 0.00 | 0.00 | 34 | 1009.3 |
| 20260504233004 | 71 | 348 | 3.0 | 16.0 | 0.00 | 0.00 | 0.00 | 29 | 1009.3 |
| 20260504232004 | 72 | 0 | 3.0 | 16.0 | 0.00 | 0.00 | 0.00 | 28 | 1009.3 |
| 20260504231004 | 75 | 334 | 2.0 | 10.0 | 0.00 | 0.00 | 0.00 | 22 | 1009.3 |
| 20260504230005 | 76 | 282 | 1.0 | 6.0 | 0.00 | 0.00 | 0.00 | 20 | 1009.3 |
| 20260504225005 | 76 | 284 | 1.0 | 7.0 | 0.00 | 0.00 | 0.00 | 22 | 1009.5 |
| 20260504224004 | 75 | 334 | 2.0 | 9.0 | 0.00 | 0.00 | 0.00 | 20 | 1009.5 |
| 20260504223004 | 76 | 327 | 1.0 | 7.0 | 0.00 | 0.00 | 0.00 | 20 | 1009.5 |
| 20260504222004 | 76 | 250 | 1.0 | 6.0 | 0.00 | 0.00 | 0.00 | 20 | 1009.5 |
| 20260504221004 | 74 | 227 | 2.0 | 9.0 | 0.00 | 0.00 | 0.00 | 19 | 1009.5 |
| 20260504220004 | 76 | 190 | 2.0 | 8.0 | 0.00 | 0.00 | 0.00 | 19 | 1009.5 |
| 20260504215005 | 75 | 209 | 1.0 | 8.0 | 0.00 | 0.00 | 0.00 | 18 | 1010.3 |
| 20260504214004 | 75 | 67 | 1.0 | 9.0 | 0.00 | 0.00 | 0.00 | 16 | 1010.3 |
| 20260504213004 | 77 | 348 | 0.0 | 4.0 | 0.00 | 0.00 | 0.00 | 19 | 1010.3 |
| 20260504212005 | 74 | 34 | 2.0 | 9.0 | 0.00 | 0.00 | 0.00 | 22 | 1010.3 |
| 20260504211004 | 73 | 345 | 2.0 | 9.0 | 0.00 | 0.00 | 0.00 | 22 | 1010.3 |
| 20260504210005 | 74 | 324 | 1.0 | 7.0 | 0.00 | 0.00 | 0.00 | 25 | 1010.3 |
| 20260504205004 | 73 | 277 | 1.0 | 8.0 | 0.00 | 0.00 | 0.00 | 25 | 1011.1 |
| 20260504204004 | 74 | 302 | 1.0 | 7.0 | 0.00 | 0.00 | 0.00 | 27 | 1011.1 |
| 20260504203004 | 73 | 201 | 2.0 | 9.0 | 0.00 | 0.00 | 0.00 | 24 | 1011.1 |
| 20260504202005 | 72 | 329 | 1.0 | 8.0 | 0.00 | 0.00 | 0.00 | 25 | 1011.1 |
| 20260504201004 | 73 | 23 | 1.0 | 7.0 | 0.00 | 0.00 | 0.00 | 30 | 1011.1 |
| 20260504200004 | 73 | 139 | 1.0 | 6.0 | 0.00 | 0.00 | 0.00 | 31 | 1011.1 |
| 20260504195004 | 72 | 118 | 1.0 | 5.0 | 0.00 | 0.00 | 0.00 | 29 | 1011.7 |
| 20260504194004 | 72 | 97 | 0.0 | 4.0 | 0.00 | 0.00 | 0.00 | 27 | 1011.7 |
| 20260504193004 | 72 | 49 | 0.0 | 4.0 | 0.00 | 0.00 | 0.00 | 27 | 1011.7 |
| 20260504192004 | 72 | 347 | 0.0 | 4.0 | 0.00 | 0.00 | 0.00 | 27 | 1011.7 |
| 20260504191004 | 71 | 203 | 1.0 | 6.0 | 0.00 | 0.00 | 0.00 | 26 | 1011.7 |
| 20260504190004 | 72 | 194 | 0.0 | 4.0 | 0.00 | 0.00 | 0.00 | 29 | 1011.7 |
| 20260504185004 | 70 | 98 | 0.0 | 3.0 | 0.00 | 0.00 | 0.00 | 34 | 1012.6 |
| 20260504184004 | 69 | 250 | 1.0 | 5.0 | 0.00 | 0.00 | 0.00 | 31 | 1012.6 |
| 20260504183004 | 69 | 54 | 1.0 | 5.0 | 0.00 | 0.00 | 0.00 | 35 | 1012.6 |
| 20260504182004 | 71 | 280 | 0.0 | 4.0 | 0.00 | 0.00 | 0.00 | 33 | 1012.6 |
| 20260504181004 | 69 | 15 | 0.0 | 3.0 | 0.00 | 0.00 | 0.00 | 36 | 1012.6 |
| 20260504180005 | 67 | 286 | 1.0 | 6.0 | 0.00 | 0.00 | 0.00 | 37 | 1012.6 |
| 20260504175004 | 67 | 326 | 1.0 | 5.0 | 0.00 | 0.00 | 0.00 | 38 | 1013.0 |
| 20260504174004 | 66 | 286 | 1.0 | 5.0 | 0.00 | 0.00 | 0.00 | 38 | 1013.0 |
| 20260504173004 | 65 | 310 | 1.0 | 5.0 | 0.00 | 0.00 | 0.00 | 37 | 1013.0 |
| 20260504172004 | 64 | 219 | 1.0 | 6.0 | 0.00 | 0.00 | 0.00 | 38 | 1013.0 |
| 20260504171004 | 64 | 335 | 1.0 | 5.0 | 0.00 | 0.00 | 0.00 | 40 | 1013.0 |
| 20260504151005 | 52 | 293 | 1.0 | 4.0 | 0.00 | 0.00 | 0.00 | 51 | 1013.5 |
| 20260504141004 | 49 | 217 | 0.0 | 2.0 | 0.00 | 0.00 | 0.00 | 61 | 1013.9 |
| 20260504082005 | 44 | 88 | 0.0 | 2.0 | 0.00 | 0.00 | 0.00 | 59 | 1012.9 |
| 20260504081005 | 44 | 263 | 0.0 | 2.0 | 0.00 | 0.00 | 0.00 | 65 | 1012.9 |
| 20260504050004 | 49 | 183 | 0.0 | 1.0 | 0.00 | 0.00 | 0.00 | 52 | 1013.5 |
| 20260504045005 | 50 | 16 | 0.0 | 1.0 | 0.00 | 0.00 | 0.00 | 52 | 1013.3 |
| 20260504044005 | 51 | 304 | 0.0 | 1.0 | 0.00 | 0.00 | 0.00 | 48 | 1013.3 |
| 20260504043005 | 51 | 87 | 0.0 | 2.0 | 0.00 | 0.00 | 0.00 | 45 | 1013.3 |
| 20260504042005 | 51 | 155 | 0.0 | 1.0 | 0.00 | 0.00 | 0.00 | 48 | 1013.3 |
| 20260504041005 | 52 | 336 | 0.0 | 2.0 | 0.00 | 0.00 | 0.00 | 43 | 1013.3 |
| 20260504040005 | 53 | 106 | 0.0 | 2.0 | 0.00 | 0.00 | 0.00 | 43 | 1013.3 |
| 20260504035004 | 53 | 114 | 0.0 | 2.0 | 0.00 | 0.00 | 0.00 | 43 | 1012.9 |
| 20260504034005 | 55 | 172 | 0.0 | 3.0 | 0.00 | 0.00 | 0.00 | 39 | 1012.9 |
| 20260504033005 | 55 | 167 | 0.0 | 1.0 | 0.00 | 0.00 | 0.00 | 47 | 1012.9 |
| 20260504032005 | 55 | 131 | 0.0 | 2.0 | 0.00 | 0.00 | 0.00 | 38 | 1012.9 |
| 20260504031005 | 55 | 239 | 0.0 | 1.0 | 0.00 | 0.00 | 0.00 | 42 | 1012.9 |
| 20260504030005 | 58 | 207 | 0.0 | 3.0 | 0.00 | 0.00 | 0.00 | 35 | 1012.9 |
| 20260504025005 | 58 | 196 | 1.0 | 5.0 | 0.00 | 0.00 | 0.00 | 34 | 1013.0 |
| 20260504024005 | 61 | 145 | 0.0 | 3.0 | 0.00 | 0.00 | 0.00 | 32 | 1013.0 |